Regional Weather Roundup
Issued by NWS New Orleans/Baton Rouge, LA

Home | Current Version | Previous Version | Graphics & Text | Print | Product List | Glossary On
Versions: 1 2 3 4 5 6 7 8 9 10 11 12 13 14 15 16 17 18 19 20 21 22 23 24 25 26 27 28 29 30 31 32 33 34 35 36 37 38 39 40 41 42 43 44 45 46 47 48 49 50
243
ASUS44 KLIX 261805
RWRLIX
NEW ORLEANS REGIONAL WEATHER ROUNDUP
NATIONAL WEATHER SERVICE NEW ORLEANS LA
1200 PM CST THU FEB 26 2015

NOTE: "FAIR" INDICATES FEW OR NO CLOUDS BELOW 12,000 FEET WITH NO
      SIGNIFICANT WEATHER AND/OR OBSTRUCTIONS TO VISIBILITY.
      SKY/WX - SKY CONDITION AND SIGNIFICANT WEATHER.
      TMP - AIR TEMPERATURE.     DP    - DEWPOINT TEMPERATURE.
      RH  - RELATIVE HUMIDITY.   PRES  - PRESSURE.
      HI  - HEAT INDEX.          WCI   - WIND CHILL INDEX.

*  THESE STATIONS ARE NOT NWS OR FAA STATIONS AND ARE NOT UNDER
   NWS QUALITY CONTROL.

LAZ038-040-048-061>063-065>067-069-261900-
SOUTHEAST LOUISIANA

CITY           SKY/WX    TMP DP  RH WIND       PRES   REMARKS
N.O. AUDUBON     N/A     46  39  79 MISG        N/A
6HR MIN TEMP:  40; 6HR MAX TEMP:  46; 6HR PCP:  6.18;

N.O. INTL ARPT CLOUDY    42  34  73 N16       30.10R
6HR MIN TEMP:  38; 6HR MAX TEMP:  43;

N.O. LAKEFRONT CLOUDY    45  35  68 N17       30.10S
6HR MIN TEMP:  40; 6HR MAX TEMP:  45;

SLIDELL        CLOUDY    42  35  76 N9        30.09S
6HR MIN TEMP:  37; 6HR MAX TEMP:  43;

BATON ROUGE    PTSUNNY   45  35  68 N12G18    30.11F
6HR MIN TEMP:  35; 6HR MAX TEMP:  45;

BOOTHVILLE     CLOUDY    42  37  82 N12G18    30.07F
6HR MIN TEMP:  41; 6HR MAX TEMP:  42;

BELLE CHASSE   CLOUDY    44  34  67 N9G17     30.08S
6HR MIN TEMP:  40; 6HR MAX TEMP:  45;

BOGALUSA*        N/A     42  35  75 N10G17    30.13R
6HR MIN TEMP:  37; 6HR MAX TEMP:  42;

GALLIANO*      CLOUDY    47  38  73 NW12G17   30.08S
6HR MIN TEMP:  41; 6HR MAX TEMP:  47;

NEW ROADS*     CLOUDY    42  35  75 N13G18    30.14S
6HR MIN TEMP:  35; 6HR MAX TEMP:  42;

GONZALES*      CLOUDY    44  36  74 N8        30.11S
6HR MIN TEMP:  36; 6HR MAX TEMP:  44;

HAMMOND*       CLOUDY    41  34  75 N12       30.13S
HOUMA*         NOT AVBL
PORT FOURCHON* NOT AVBL

$$

MSZ070-080>082-261900-
SOUTHERN MISSISSIPPI

CITY           SKY/WX    TMP DP  RH WIND       PRES   REMARKS
MCCOMB         PTSUNNY   41  32  70 N14       30.11F
6HR MIN TEMP:  33; 6HR MAX TEMP:  41;

GULFPORT       CLOUDY    45  35  68 N16       30.06F
6HR MIN TEMP:  38; 6HR MAX TEMP:  45;

BILOXI         PTSUNNY   46  37  69 N10       30.05F
6HR MIN TEMP:  38; 6HR MAX TEMP:  46;

PASCAGOULA     PTSUNNY   47  36  65 N10G17    30.05F
6HR MIN TEMP:  37; 6HR MAX TEMP:  48;

STENNIS ARPT*  PTSUNNY   45  34  65 N12G17    30.08F

$$

COASTAL OBSERVATIONS
LAKE AND NEARSHORE STATIONS

STATION/POSITION TIME  TEMP    WIND        PRES    WAVE
                       AIR SEA DIR/SP/G            HT/PER
                 (UTC) (F)     (DEG/KT/KT) (MB)    (FT/S)
WAVELAND YACHT   1715   41 49  360/ 15/ 17 1018.2
GRAND ISLE       1715   42 52   10/ 12/ 16 1018.7
SOUTHWEST PASS   1715   45 48  360/ 17/ 18 1018.2
NEW CANAL        1715   40      10/ 10/ 13 1019.1
SHELL BEACH      1715   40 50  350/ 13/ 15 1018.5

OFFSHORE STATIONS

STATION/POSITION TIME  TEMP    WIND        PRES    WAVE
                       AIR SEA DIR/SP/G            HT/PER
                 (UTC) (F)     (DEG/KT/KT) (MB)    (FT/S)
64 S DAUPHIN ISL 1702   47 66   10/ 14/ 17 1016.7    5/ 7

$$




USA.gov is the U.S. government's official web portal to all federal, state and local government web resources and services.